Vorticity
14 13 13 13 12 12 11 10 10 10 10 9 9 9 9 9 9 8 8 9 8 7 6 5 5 4 4 4 5 5 4 4 3 4 6 8 9 10 11 11 10 9 8 8 8 8 8 8 8 6 4 1 -1 -1 -1 1 5 9 11 10 9 11 13 16 17 16 13 7 -2
13 12 12 11 11 10 10 10 9 9 9 9 9 9 9 9 9 8 8 8 8 7 6 6 6 5 5 5 5 5 4 3 3 5 7 9 10 11 11 11 10 9 8 7 7 7 7 7 7 5 2 -1 -1 -1 0 3 8 10 10 8 10 13 16 18 17 14 8 -1 -8
11 11 11 11 10 10 10 9 9 9 9 9 9 9 9 9 9 8 8 8 8 8 8 7 7 7 6 6 6 5 5 4 4 5 8 10 11 11 11 10 10 8 7 6 6 6 6 6 4 2 -0 -2 -1 -0 2 6 10 10 9 9 13 16 18 18 15 9 1 -8 -11
10 10 10 10 10 9 9 9 9 9 9 8 8 9 9 9 9 8 8 8 8 9 10 9 9 9 8 8 7 6 5 4 5 7 9 11 12 12 11 10 9 8 6 5 5 4 4 4 2 -0 -2 -1 -0 1 4 9 10 8 7 11 16 19 19 16 11 3 -5 -12 -9
9 9 9 8 8 8 8 8 9 9 9 8 9 9 9 10 10 9 9 9 10 11 12 12 12 11 10 10 9 8 7 6 7 10 12 13 13 12 11 10 8 7 6 5 4 3 3 2 -0 -1 -2 -1 0 3 7 11 9 7 9 15 20 20 17 12 5 -2 -9 -12 -2
7 7 7 7 7 7 7 8 8 8 8 9 10 10 11 12 12 12 12 12 13 13 14 15 14 13 12 11 11 10 9 9 11 12 14 14 13 12 11 9 8 6 5 4 3 3 2 1 -1 -1 -0 0 3 7 10 10 7 8 13 20 22 19 14 8 0 -7 -10 -6 7
6 6 6 7 7 6 6 6 6 6 7 8 9 11 13 14 15 15 16 16 16 16 16 17 16 15 13 13 12 12 12 13 13 14 14 14 13 11 9 8 7 6 5 4 3 3 2 1 1 1 2 3 7 10 11 7 7 12 18 22 20 16 10 3 -5 -9 -7 2 17
7 7 8 7 7 7 6 6 6 5 5 5 6 8 10 12 15 17 18 18 18 18 18 19 18 17 16 15 14 14 15 15 14 14 13 12 10 8 7 7 7 6 5 4 4 3 3 2 3 3 5 8 12 12 10 6 10 15 20 21 17 13 7 -2 -8 -8 -1 12 23
10 11 11 11 10 9 8 8 7 7 7 6 5 4 4 5 7 10 13 15 16 18 19 20 20 19 18 17 16 16 15 15 14 12 10 7 6 6 6 6 6 5 4 3 4 4 5 5 5 6 9 13 13 11 8 7 14 18 20 18 14 9 2 -6 -8 -3 7 20 26
15 16 17 17 16 16 15 14 13 12 12 11 10 7 4 1 0 1 2 5 7 11 15 19 20 20 19 18 17 16 14 13 12 9 5 2 3 4 5 5 5 4 3 3 5 6 7 7 8 11 13 15 12 9 8 12 17 18 18 15 11 5 -2 -8 -5 4 15 25 27
21 22 23 23 23 23 23 22 21 20 18 17 17 15 13 9 5 2 -1 -3 -3 1 7 15 19 20 19 17 15 13 12 10 7 4 1 0 2 3 5 5 5 5 4 5 7 8 9 9 11 14 15 13 9 9 11 16 18 17 15 12 7 1 -4 -7 1 11 20 26 25
22 22 22 22 23 24 25 25 25 25 24 23 22 22 21 19 16 12 9 6 2 -1 1 9 15 17 16 14 11 9 7 5 2 1 0 1 3 4 5 6 6 6 7 9 11 11 11 11 13 14 13 10 8 10 14 17 16 15 12 9 4 -1 -4 -2 8 17 22 24 22
18 18 18 19 20 21 23 24 24 25 25 24 23 23 23 23 20 18 16 18 13 6 1 2 9 12 11 9 7 5 3 1 -0 -0 1 3 5 6 7 6 7 9 11 14 14 13 13 13 14 13 11 9 10 13 15 16 14 12 9 5 1 -2 -1 5 14 20 22 23 19
15 16 18 20 22 24 26 26 25 25 24 22 20 20 20 19 15 14 16 20 18 10 2 -4 1 4 4 3 2 1 -0 -1 -0 2 4 6 7 7 7 7 10 13 16 17 16 14 13 13 13 11 10 10 12 14 14 13 12 10 7 2 -1 -1 4 13 18 20 20 20 16
14 16 18 21 25 29 32 33 30 28 25 22 19 17 15 10 10 13 17 18 18 11 0 -10 -6 -4 -3 -4 -3 -2 -1 0 2 5 6 7 6 5 5 7 12 16 18 18 15 13 12 12 11 11 11 12 13 13 12 11 9 7 4 1 -0 3 10 18 18 19 19 18 13
12 14 17 21 26 31 36 39 36 31 26 23 22 20 14 6 12 16 17 13 17 11 1 -9 -5 -4 -4 -6 -4 -1 2 4 6 6 5 2 0 0 3 9 15 18 18 16 13 12 12 11 11 11 12 13 12 11 9 8 7 5 3 1 4 9 16 19 17 17 17 16 11
10 12 15 18 23 30 37 43 42 36 28 22 24 22 17 9 15 17 14 9 13 10 4 -1 3 3 0 -3 -0 3 7 8 6 3 -2 -5 -4 -1 5 13 19 20 18 14 13 12 11 11 11 11 11 11 10 9 7 7 5 4 3 4 10 15 18 18 16 15 15 13 10
8 9 11 14 19 27 35 45 49 44 34 23 23 21 16 6 13 18 20 14 10 7 5 3 8 8 7 5 7 8 9 7 2 -3 -7 -7 -4 3 11 20 22 21 17 13 12 12 11 11 11 10 10 9 8 7 7 6 5 5 6 10 15 18 18 15 14 14 14 12 10
6 7 8 10 15 21 30 42 52 55 50 38 29 22 15 4 12 22 28 18 8 4 3 -0 7 13 17 16 12 8 4 1 -3 -6 -7 -6 1 10 19 26 24 20 16 13 12 12 12 11 11 10 9 8 7 7 7 6 6 8 11 15 18 18 17 13 13 13 13 12 10
6 5 6 7 10 15 23 33 46 57 61 58 45 31 17 5 11 19 22 14 12 11 9 1 6 12 17 16 9 3 -3 -6 -6 -6 -4 0 10 20 26 28 23 18 14 13 13 12 12 11 10 9 9 8 7 7 7 8 9 12 15 18 19 17 15 13 12 13 13 12 9
6 6 5 5 7 10 15 22 34 46 58 65 60 46 29 12 9 10 12 11 18 22 20 9 4 4 5 5 1 -2 -5 -7 -6 -4 2 10 21 27 29 25 20 16 14 14 13 12 11 10 10 9 8 8 8 8 9 10 12 15 17 18 18 16 14 12 12 13 13 12 9
7 6 6 5 6 7 9 13 21 31 42 54 59 56 46 30 18 12 9 11 16 19 18 13 7 4 3 3 3 2 1 -1 -0 4 12 23 29 30 26 21 17 15 14 13 12 10 9 8 8 8 8 8 8 10 11 13 15 16 17 17 17 16 14 13 13 13 13 12 9
9 8 7 7 6 6 7 8 12 17 25 35 44 48 48 42 33 26 20 17 15 14 13 13 13 14 16 18 18 17 15 12 13 18 26 32 31 27 22 18 16 14 13 11 10 9 8 8 8 8 9 10 11 12 13 14 15 15 16 16 16 16 15 14 14 14 14 12 9
11 10 9 8 8 7 7 7 8 10 15 21 28 34 38 39 37 33 30 26 22 19 18 20 23 26 29 31 30 29 27 26 29 32 34 31 25 20 17 15 14 13 11 10 10 10 10 10 10 10 11 12 13 14 14 14 14 15 15 16 16 15 15 15 16 15 14 12 9
13 12 11 11 10 10 9 8 8 8 10 13 18 23 28 31 32 33 32 31 30 29 29 29 30 30 30 31 31 32 34 36 36 33 28 22 18 15 13 12 11 11 10 10 10 10 10 11 11 12 13 13 13 13 13 13 14 14 15 15 15 15 15 16 17 16 14 11 9
13 13 13 13 12 12 11 10 9 9 9 10 13 17 21 25 28 30 32 32 32 32 32 32 31 30 30 31 33 34 34 32 27 22 18 15 13 12 11 10 9 9 8 9 9 9 10 10 11 11 12 13 12 12 12 12 13 13 14 15 16 16 16 17 17 16 14 11 8
14 14 14 14 14 13 13 12 11 10 10 11 12 15 18 21 24 27 29 30 31 31 31 31 31 31 31 30 29 26 22 19 16 13 12 11 10 9 9 8 8 8 8 8 8 8 9 10 10 11 11 11 11 11 11 11 11 12 14 15 17 18 18 18 17 15 13 10 8
14 14 14 14 15 14 14 13 13 13 13 13 13 14 16 18 21 23 24 26 26 26 26 26 25 24 22 19 16 14 12 11 10 9 8 8 7 8 8 8 9 9 8 8 8 8 9 9 9 10 10 10 10 11 10 10 11 13 14 16 17 18 19 18 16 14 11 9 8
14 14 14 15 15 15 15 15 15 15 15 15 15 16 16 17 17 18 18 18 18 17 17 15 14 12 11 10 9 8 8 8 7 7 7 7 8 8 8 9 9 9 8 8 8 8 8 8 8 9 9 10 10 10 11 11 12 13 15 17 18 18 18 18 16 13 10 8 8
15 15 16 16 16 16 16 16 16 16 16 16 16 16 15 14 13 12 11 10 10 9 8 7 7 7 7 7 7 7 8 8 8 8 8 8 9 9 9 9 9 8 8 8 8 8 8 8 8 8 9 10 10 11 11 12 13 14 16 17 18 19 19 17 14 11 9 7 8
16 16 16 16 16 16 16 16 16 15 15 14 13 12 11 10 9 8 7 7 6 6 6 6 7 7 7 7 8 8 9 9 9 9 10 9 9 9 9 9 9 9 8 8 8 8 8 8 9 9 9 10 11 12 12 12 14 15 16 17 18 19 18 16 13 10 8 7 9
16 16 16 16 15 15 14 14 13 12 11 10 9 8 7 7 6 6 6 6 6 7 7 7 7 8 8 8 9 9 9 9 9 10 10 10 10 10 10 10 10 9 9 9 9 9 9 9 9 10 10 10 11 12 13 13 14 16 17 19 19 18 17 15 12 9 7 7 9
16 16 15 14 13 13 12 11 10 9 8 7 7 6 6 6 6 7 7 7 7 7 7 8 8 8 8 8 8 9 9 9 9 10 10 11 11 11 11 10 10 10 10 10 10 10 10 10 10 10 11 11 11 12 13 14 15 17 18 20 20 19 17 13 10 7 7 8 10
15 15 14 13 11 10 9 8 7 6 6 6 6 6 6 7 7 7 8 8 8 7 7 7 7 7 7 7 7 8 8 9 10 10 11 12 12 12 12 11 11 11 11 11 11 11 11 11 11 11 11 11 11 12 13 14 16 18 20 21 20 18 16 12 8 7 6 8 10
14 13 12 10 9 8 7 6 6 6 6 6 7 7 7 8 8 8 7 7 6 6 6 5 5 5 5 5 6 7 8 9 10 11 12 13 13 13 13 12 12 12 12 12 12 11 11 11 11 11 11 10 11 12 13 15 17 19 21 21 20 18 15 10 7 6 6 8 10
12 11 10 8 7 6 6 5 5 6 7 7 7 8 8 8 7 6 6 5 4 4 4 3 3 4 4 4 5 6 7 8 10 11 12 13 14 14 13 13 13 13 13 13 12 12 12 11 11 11 10 10 10 12 14 16 18 21 22 22 20 17 13 9 7 6 7 9 11
10 9 8 6 6 6 6 6 6 7 7 8 8 7 7 6 5 4 4 3 3 3 3 2 3 3 3 3 4 4 5 7 8 10 12 13 14 14 14 13 13 13 13 13 13 12 12 11 11 10 10 10 11 12 14 17 20 22 24 23 20 16 13 8 6 6 7 9 12
9 7 6 6 6 6 6 6 7 7 7 7 7 6 5 4 3 3 2 3 3 2 2 2 2 2 2 2 2 2 3 4 6 8 10 13 14 15 14 14 14 13 13 13 13 12 12 11 10 10 10 10 11 13 16 18 21 24 25 23 20 16 11 7 6 6 7 10 12
7 6 6 5 6 6 6 7 7 7 7 6 5 4 4 3 2 2 2 2 2 2 2 2 2 2 1 1 0 1 1 2 4 6 9 11 13 14 15 15 14 14 13 13 12 12 11 10 10 9 10 10 12 14 17 20 23 25 25 23 19 14 10 6 5 6 8 11 13
6 5 5 5 6 6 7 7 7 6 5 4 4 3 3 2 2 2 2 2 2 2 2 2 2 1 1 1 0 0 0 1 2 4 7 9 12 14 15 15 14 14 13 13 12 11 10 10 9 9 10 11 13 16 19 22 24 25 25 22 17 13 9 6 5 6 9 12 13
6 5 5 5 6 6 7 7 6 5 4 4 3 2 2 2 1 1 1 2 2 2 2 2 2 1 1 1 1 0 0 0 1 3 5 7 10 13 14 15 15 14 14 13 12 11 10 10 9 9 10 12 14 17 20 23 26 26 24 20 15 11 7 5 5 7 10 13 13
Height
5699 5697 5694 5692 5690 5688 5685 5683 5681 5679 5677 5674 5672 5670 5669 5667 5665 5663 5661 5659 5658 5656 5654 5652 5649 5648 5645 5643 5641 5639 5637 5635 5633 5631 5629 5628 5627 5625 5623 5621 5619 5617 5615 5613 5611 5609 5607 5605 5603 5600 5598 5595 5593 5590 5587 5584 5581 5578 5575 5572 5569 5566 5563 5559 5557 5554 5552 5549 5547
5694 5692 5690 5688 5685 5683 5681 5678 5676 5674 5672 5670 5668 5666 5664 5662 5660 5659 5657 5655 5653 5651 5649 5647 5645 5643 5641 5639 5637 5635 5633 5631 5629 5627 5625 5624 5622 5621 5619 5617 5615 5613 5611 5609 5607 5605 5603 5600 5598 5596 5594 5591 5589 5586 5582 5579 5576 5573 5570 5567 5564 5561 5558 5555 5552 5550 5547 5545 5542
5690 5688 5686 5683 5681 5679 5676 5674 5671 5669 5667 5665 5663 5661 5659 5658 5656 5654 5652 5650 5648 5647 5645 5643 5641 5639 5637 5635 5633 5631 5629 5627 5624 5623 5621 5619 5618 5616 5614 5613 5611 5609 5607 5605 5603 5600 5599 5596 5594 5591 5589 5587 5584 5581 5578 5574 5571 5569 5565 5562 5559 5557 5554 5551 5548 5545 5543 5540 5537
5687 5684 5682 5679 5677 5674 5672 5669 5667 5664 5662 5659 5658 5656 5654 5653 5651 5649 5647 5645 5643 5642 5640 5639 5636 5634 5633 5631 5628 5626 5624 5622 5620 5619 5617 5615 5614 5612 5610 5609 5606 5604 5603 5600 5598 5596 5594 5592 5589 5587 5585 5582 5579 5576 5573 5569 5567 5564 5561 5558 5555 5552 5549 5546 5544 5541 5538 5535 5532
5683 5680 5678 5675 5673 5670 5667 5665 5662 5660 5657 5655 5653 5651 5649 5647 5645 5643 5641 5639 5638 5636 5635 5633 5632 5630 5628 5626 5624 5622 5620 5618 5616 5614 5613 5611 5610 5608 5606 5604 5602 5600 5599 5596 5594 5592 5589 5587 5585 5583 5581 5578 5575 5571 5568 5565 5562 5559 5556 5553 5550 5548 5545 5542 5539 5537 5534 5531 5528
5678 5676 5674 5671 5668 5666 5663 5660 5658 5655 5653 5650 5648 5646 5644 5642 5640 5638 5636 5634 5633 5631 5629 5628 5627 5625 5623 5622 5619 5618 5616 5614 5612 5610 5609 5607 5605 5604 5602 5600 5598 5596 5594 5592 5590 5588 5585 5583 5581 5579 5576 5574 5570 5566 5563 5561 5558 5555 5552 5549 5546 5544 5541 5538 5535 5532 5529 5526 5523
5674 5672 5669 5666 5664 5661 5658 5655 5653 5650 5648 5646 5644 5641 5639 5637 5634 5632 5630 5629 5627 5625 5624 5623 5621 5620 5618 5617 5615 5613 5611 5610 5608 5606 5605 5603 5601 5599 5598 5596 5594 5592 5590 5588 5586 5583 5581 5579 5577 5575 5572 5569 5565 5562 5559 5556 5553 5550 5548 5545 5542 5539 5537 5534 5531 5528 5524 5521 5518
5669 5667 5664 5661 5659 5656 5653 5650 5647 5645 5642 5640 5639 5636 5634 5631 5629 5627 5625 5623 5622 5620 5619 5617 5616 5614 5613 5612 5610 5609 5607 5606 5604 5602 5601 5599 5597 5595 5594 5592 5590 5588 5586 5584 5581 5579 5577 5575 5573 5571 5568 5564 5560 5557 5554 5552 5549 5546 5543 5541 5538 5535 5533 5530 5526 5523 5520 5517 5513
5664 5662 5659 5656 5653 5650 5648 5644 5642 5639 5637 5634 5632 5630 5628 5626 5624 5622 5620 5618 5617 5615 5614 5612 5611 5609 5608 5607 5606 5604 5603 5601 5599 5598 5596 5594 5593 5591 5589 5588 5586 5584 5581 5579 5577 5575 5573 5571 5569 5566 5563 5559 5556 5553 5550 5547 5544 5541 5539 5536 5534 5531 5529 5526 5522 5519 5515 5512 5509
5659 5657 5654 5651 5648 5645 5642 5639 5636 5633 5630 5628 5626 5624 5622 5620 5619 5617 5615 5613 5612 5610 5609 5608 5606 5604 5603 5602 5601 5600 5599 5597 5595 5594 5592 5590 5589 5587 5585 5583 5581 5579 5577 5575 5573 5571 5569 5566 5564 5561 5558 5554 5551 5549 5545 5543 5540 5537 5534 5532 5530 5527 5524 5521 5518 5514 5511 5508 5504
5654 5650 5647 5644 5641 5638 5635 5632 5629 5626 5624 5622 5619 5618 5616 5614 5613 5611 5609 5608 5607 5606 5604 5603 5601 5600 5599 5598 5597 5595 5594 5592 5591 5589 5588 5586 5584 5583 5581 5579 5577 5575 5573 5571 5569 5566 5564 5562 5559 5556 5552 5549 5547 5544 5541 5539 5536 5533 5531 5528 5526 5523 5520 5517 5514 5510 5507 5504 5500
5646 5643 5639 5636 5633 5630 5627 5624 5621 5619 5617 5615 5613 5612 5610 5609 5607 5606 5605 5604 5603 5601 5600 5599 5597 5596 5594 5593 5592 5591 5589 5588 5586 5585 5584 5582 5581 5579 5577 5575 5573 5571 5569 5567 5564 5562 5560 5557 5554 5551 5548 5545 5543 5540 5537 5534 5532 5529 5527 5524 5522 5519 5516 5513 5509 5506 5503 5500 5497
5639 5636 5632 5629 5625 5622 5619 5616 5614 5612 5610 5609 5607 5606 5604 5603 5602 5601 5600 5599 5598 5597 5596 5594 5593 5591 5590 5589 5587 5586 5585 5584 5582 5581 5580 5579 5577 5575 5573 5571 5569 5567 5564 5562 5560 5558 5555 5552 5549 5546 5544 5541 5538 5536 5533 5530 5528 5525 5523 5520 5518 5515 5512 5508 5505 5502 5499 5496 5493
5634 5630 5627 5623 5619 5616 5612 5609 5606 5605 5604 5603 5602 5600 5599 5598 5597 5596 5595 5594 5593 5592 5591 5590 5589 5587 5586 5584 5583 5582 5581 5580 5579 5578 5576 5575 5573 5571 5569 5567 5564 5562 5560 5558 5555 5553 5550 5547 5544 5542 5539 5537 5534 5531 5529 5526 5524 5521 5519 5516 5514 5510 5507 5504 5501 5498 5494 5492 5489
5629 5626 5622 5618 5614 5610 5606 5603 5600 5599 5598 5597 5596 5595 5594 5593 5591 5590 5589 5589 5588 5588 5587 5585 5584 5583 5582 5580 5579 5579 5578 5576 5575 5574 5572 5570 5569 5567 5564 5562 5560 5558 5555 5553 5550 5548 5545 5543 5540 5538 5535 5533 5530 5527 5525 5522 5520 5517 5515 5512 5509 5506 5503 5499 5496 5494 5490 5488 5485
5625 5621 5618 5614 5609 5605 5601 5598 5595 5593 5592 5591 5590 5590 5589 5587 5586 5585 5584 5584 5584 5584 5583 5581 5580 5579 5578 5577 5576 5575 5574 5573 5571 5570 5568 5566 5564 5562 5560 5557 5555 5553 5550 5548 5546 5543 5541 5538 5536 5534 5531 5529 5526 5523 5521 5518 5516 5514 5511 5508 5505 5502 5499 5495 5492 5489 5487 5484 5481
5621 5617 5614 5609 5605 5601 5597 5593 5590 5588 5587 5586 5585 5585 5584 5583 5582 5581 5581 5580 5580 5580 5579 5578 5576 5575 5574 5574 5573 5572 5570 5568 5567 5565 5564 5562 5559 5557 5555 5553 5550 5548 5546 5544 5541 5539 5536 5534 5532 5529 5527 5524 5522 5519 5517 5514 5512 5509 5507 5504 5501 5498 5494 5491 5488 5485 5483 5479 5477
5617 5613 5610 5606 5602 5597 5593 5589 5585 5583 5582 5582 5581 5580 5579 5578 5578 5578 5577 5577 5577 5576 5575 5573 5572 5572 5570 5569 5568 5567 5565 5563 5562 5560 5559 5557 5555 5552 5550 5548 5546 5543 5541 5539 5536 5534 5533 5530 5528 5525 5523 5520 5518 5515 5513 5511 5508 5506 5503 5499 5496 5493 5490 5487 5484 5481 5479 5476 5473
5613 5610 5606 5602 5598 5594 5589 5585 5581 5578 5576 5575 5574 5574 5573 5573 5572 5572 5572 5571 5571 5571 5570 5568 5567 5567 5566 5565 5563 5562 5560 5559 5557 5556 5554 5552 5550 5548 5545 5544 5541 5539 5536 5534 5533 5531 5529 5526 5524 5521 5519 5517 5514 5512 5509 5507 5504 5502 5499 5495 5492 5489 5486 5483 5480 5477 5474 5472 5469
5610 5607 5603 5599 5595 5591 5587 5582 5578 5574 5571 5569 5569 5568 5568 5568 5567 5567 5566 5566 5566 5566 5565 5564 5563 5561 5560 5560 5559 5557 5555 5554 5553 5552 5550 5548 5545 5543 5541 5539 5537 5534 5533 5531 5529 5527 5525 5523 5520 5518 5515 5513 5510 5508 5506 5503 5500 5497 5494 5491 5488 5485 5482 5479 5476 5473 5470 5468 5465
5607 5604 5600 5596 5593 5589 5584 5580 5576 5572 5569 5566 5565 5564 5564 5564 5564 5563 5563 5562 5562 5561 5561 5559 5558 5557 5556 5555 5554 5553 5551 5550 5549 5548 5546 5544 5541 5539 5537 5535 5533 5531 5529 5527 5525 5523 5521 5519 5516 5514 5511 5509 5507 5504 5502 5499 5496 5493 5490 5487 5484 5481 5478 5475 5472 5469 5467 5464 5461
5604 5601 5597 5594 5590 5586 5582 5578 5574 5570 5567 5564 5563 5561 5561 5560 5560 5560 5559 5558 5558 5557 5556 5555 5554 5553 5552 5551 5550 5549 5548 5547 5545 5544 5542 5540 5537 5535 5533 5531 5529 5528 5526 5524 5522 5519 5517 5515 5513 5510 5508 5506 5503 5501 5498 5495 5492 5489 5486 5483 5480 5477 5474 5471 5468 5465 5463 5460 5457
5601 5598 5594 5591 5587 5584 5580 5576 5573 5569 5566 5563 5561 5559 5558 5557 5557 5556 5555 5554 5554 5553 5552 5552 5551 5550 5549 5548 5547 5546 5545 5544 5542 5540 5538 5536 5534 5532 5530 5528 5526 5524 5522 5520 5518 5516 5513 5511 5509 5507 5504 5502 5499 5497 5494 5491 5488 5485 5482 5479 5476 5473 5470 5467 5464 5461 5459 5456 5454
5598 5595 5592 5588 5585 5581 5578 5574 5571 5568 5565 5562 5559 5558 5556 5555 5554 5553 5552 5551 5550 5549 5549 5548 5547 5547 5545 5544 5543 5542 5541 5540 5538 5537 5534 5533 5530 5529 5527 5525 5523 5521 5519 5517 5514 5512 5510 5508 5505 5503 5501 5499 5496 5493 5490 5487 5484 5481 5478 5475 5472 5469 5466 5463 5460 5458 5455 5453 5450
5595 5592 5589 5586 5582 5579 5575 5572 5569 5566 5563 5560 5558 5556 5554 5553 5551 5550 5549 5548 5547 5546 5545 5545 5544 5543 5542 5541 5539 5539 5537 5536 5534 5533 5531 5529 5528 5526 5524 5522 5519 5517 5515 5513 5511 5509 5507 5504 5502 5500 5497 5494 5492 5489 5486 5483 5480 5477 5474 5471 5468 5465 5462 5459 5456 5454 5451 5449 5446
5592 5589 5586 5583 5579 5576 5573 5570 5567 5564 5562 5559 5557 5554 5552 5551 5549 5548 5547 5545 5544 5544 5542 5541 5540 5539 5539 5537 5536 5535 5534 5533 5531 5530 5528 5526 5524 5523 5520 5519 5516 5514 5512 5510 5508 5505 5503 5501 5499 5496 5494 5491 5488 5485 5482 5479 5476 5473 5470 5467 5464 5461 5458 5455 5453 5450 5448 5445 5443
5589 5586 5583 5580 5577 5574 5571 5568 5565 5563 5560 5558 5555 5553 5551 5549 5547 5546 5544 5543 5542 5541 5540 5539 5538 5537 5536 5534 5534 5532 5531 5530 5529 5527 5525 5524 5521 5519 5517 5515 5513 5511 5509 5506 5504 5502 5500 5497 5495 5493 5490 5487 5484 5481 5479 5475 5472 5469 5466 5463 5460 5457 5454 5451 5449 5447 5444 5442 5439
5586 5584 5580 5577 5574 5571 5569 5566 5564 5561 5559 5556 5554 5552 5549 5548 5546 5544 5543 5541 5540 5539 5538 5537 5536 5534 5533 5532 5531 5530 5529 5527 5526 5524 5522 5520 5519 5516 5514 5512 5510 5508 5505 5503 5501 5499 5496 5494 5491 5489 5486 5483 5480 5478 5474 5472 5469 5465 5462 5459 5456 5453 5450 5448 5445 5443 5441 5438 5436
5584 5581 5578 5575 5572 5569 5566 5564 5561 5559 5557 5554 5552 5550 5548 5546 5544 5543 5541 5540 5539 5537 5536 5535 5534 5533 5531 5530 5529 5528 5526 5525 5523 5521 5519 5518 5516 5514 5511 5509 5507 5504 5502 5500 5497 5495 5493 5490 5488 5485 5483 5480 5477 5474 5470 5468 5465 5462 5459 5455 5453 5450 5447 5444 5442 5440 5437 5435 5432
5581 5578 5575 5572 5569 5567 5564 5562 5559 5557 5555 5553 5551 5549 5547 5545 5544 5542 5540 5539 5538 5536 5535 5534 5532 5531 5530 5529 5527 5526 5524 5523 5521 5519 5517 5515 5513 5510 5508 5506 5504 5501 5499 5496 5494 5492 5489 5487 5484 5482 5479 5476 5473 5470 5467 5464 5461 5458 5455 5452 5449 5446 5444 5441 5439 5436 5434 5432 5429
5578 5575 5573 5570 5567 5564 5562 5560 5558 5555 5554 5551 5549 5548 5546 5544 5542 5541 5539 5538 5536 5535 5533 5532 5531 5529 5528 5526 5525 5524 5522 5520 5518 5516 5514 5512 5509 5507 5505 5503 5500 5498 5495 5493 5490 5488 5486 5484 5481 5478 5476 5473 5470 5467 5464 5460 5457 5454 5452 5449 5446 5443 5440 5438 5436 5433 5431 5428 5426
5575 5573 5570 5568 5565 5563 5560 5558 5556 5554 5552 5550 5548 5546 5544 5543 5541 5539 5538 5536 5535 5533 5532 5530 5529 5528 5526 5524 5523 5521 5519 5517 5515 5513 5511 5509 5506 5504 5502 5499 5497 5494 5492 5489 5487 5485 5482 5480 5477 5475 5472 5469 5466 5464 5460 5457 5454 5451 5448 5445 5442 5439 5437 5434 5432 5430 5428 5425 5422
5573 5570 5568 5565 5563 5561 5558 5556 5554 5552 5550 5548 5546 5544 5543 5541 5540 5538 5536 5535 5533 5532 5530 5529 5527 5525 5524 5522 5520 5518 5516 5514 5512 5510 5508 5505 5503 5501 5499 5496 5494 5491 5489 5486 5484 5481 5479 5476 5474 5471 5468 5466 5463 5460 5457 5454 5450 5447 5444 5441 5439 5436 5434 5431 5429 5427 5424 5422 5419
5570 5568 5566 5564 5561 5559 5557 5554 5553 5550 5549 5546 5544 5543 5541 5539 5538 5536 5535 5533 5531 5530 5528 5526 5524 5523 5521 5519 5517 5515 5514 5511 5509 5507 5505 5503 5500 5498 5496 5493 5490 5488 5485 5483 5480 5478 5475 5473 5470 5468 5465 5462 5459 5457 5454 5450 5447 5444 5441 5438 5435 5433 5430 5428 5426 5424 5421 5419 5416
5568 5566 5564 5562 5559 5557 5555 5553 5551 5549 5547 5545 5543 5541 5539 5538 5536 5534 5533 5531 5529 5527 5525 5524 5522 5520 5518 5516 5514 5513 5511 5509 5507 5504 5502 5500 5498 5495 5493 5490 5487 5484 5482 5479 5477 5474 5472 5469 5467 5464 5461 5459 5456 5453 5450 5447 5444 5441 5438 5435 5432 5429 5427 5425 5423 5420 5418 5415 5413
5565 5564 5561 5559 5557 5555 5553 5551 5549 5547 5545 5543 5541 5539 5537 5536 5534 5532 5530 5529 5527 5525 5523 5521 5519 5518 5516 5514 5512 5510 5509 5506 5504 5502 5500 5497 5495 5492 5490 5487 5484 5481 5479 5476 5474 5471 5469 5466 5463 5461 5458 5456 5453 5449 5446 5444 5440 5437 5434 5432 5429 5427 5424 5422 5420 5418 5415 5413 5410
5563 5561 5559 5557 5555 5554 5551 5549 5547 5545 5543 5541 5539 5537 5535 5534 5532 5530 5528 5526 5524 5523 5521 5519 5518 5516 5514 5512 5510 5508 5506 5504 5502 5499 5497 5494 5492 5489 5486 5484 5481 5478 5476 5473 5470 5468 5465 5463 5460 5457 5455 5452 5449 5446 5443 5440 5437 5434 5431 5429 5426 5424 5421 5419 5417 5415 5412 5410 5407
5560 5559 5557 5555 5553 5551 5549 5547 5545 5543 5541 5539 5538 5535 5534 5532 5530 5528 5526 5524 5522 5521 5519 5517 5515 5513 5511 5509 5508 5506 5504 5501 5499 5497 5494 5491 5489 5486 5483 5480 5478 5475 5472 5470 5467 5465 5462 5459 5457 5454 5451 5449 5445 5443 5439 5436 5434 5431 5428 5425 5423 5421 5419 5416 5414 5412 5409 5407 5405
5558 5556 5554 5553 5551 5549 5547 5545 5543 5541 5539 5537 5535 5534 5532 5529 5528 5526 5524 5522 5520 5518 5516 5515 5513 5511 5509 5507 5505 5503 5501 5499 5496 5494 5491 5489 5486 5483 5480 5478 5474 5472 5469 5466 5464 5461 5459 5456 5454 5451 5448 5445 5442 5439 5436 5433 5430 5427 5425 5422 5420 5418 5416 5414 5412 5409 5407 5404 5402
5555 5554 5552 5550 5548 5546 5544 5543 5541 5539 5537 5535 5533 5531 5529 5527 5525 5523 5521 5519 5518 5516 5514 5512 5510 5509 5507 5504 5503 5500 5498 5496 5493 5491 5488 5485 5483 5480 5477 5474 5472 5469 5466 5464 5461 5458 5455 5453 5450 5448 5445 5442 5439 5436 5433 5430 5427 5424 5421 5419 5417 5415 5413 5411 5409 5407 5404 5402 5399
5553 5551 5549 5547 5546 5544 5542 5540 5538 5536 5534 5533 5530 5529 5527 5525 5523 5521 5519 5517 5515 5514 5512 5510 5508 5506 5504 5502 5500 5498 5495 5493 5490 5488 5485 5483 5480 5477 5474 5472 5469 5466 5463 5460 5458 5455 5452 5450 5447 5444 5442 5438 5435 5432 5429 5426 5424 5421 5419 5416 5415 5413 5411 5409 5406 5404 5402 5399 5397